Barnwell, SC

2:33 AM EST on December 18, 2017 (GMT -0500)
Barnwell County

Weather History for KBNL - January, 2013

Change the Weather History Date:

Wednesday, January 2, 2013

  Actual Average (KOGB) Record (KOGB)
Temperature  
Mean Temperature 58 °F -  
Max Temperature 64 °F 57 °F 76 °F (1985)
Min Temperature 51 °F 36 °F 22 °F (1963)
Degree Days  
Heating Degree Days 8    
Growing Degree Days 8 (Base 50)    
Moisture  
Dew Point 54 °F    
Average Humidity 90    
Maximum Humidity 100    
Minimum Humidity 77    
Precipitation  
Precipitation 0.01 in - - ()
Sea Level Pressure  
Sea Level Pressure 30.02 in    
Wind  
Wind Speed 2 mph (NNW)    
Max Wind Speed 12 mph    
Max Gust Speed 16 mph    
Visibility 9 miles    
Events Rain    
Averages and records for this station are not official NWS values.
T = Trace of Precipitation, MM = Missing Value Source: NWS Daily Summary

Daily Weather History Graph

Daily Weather History Graph

Search for Another Location

Airport or City:

Trip Planner

Search our weather history database for the weather conditions in past years. The results will help you decide how hot, cold, wet, or windy it might be!

Date:

Astronomy

Jan. 02, 2013 Rise Set
Actual Time 7:29 AM EST 5:30 PM EST
Civil Twilight 7:02 AM EST 5:57 PM EST
Nautical Twilight 6:31 AM EST 6:28 PM EST
Astronomical Twilight 6:01 AM EST 6:58 PM EST
Moon 10:43 PM EST (1/2) 10:26 AM EST (1/2)
Length of Visible Light 10h 55m
Length of Day
10h 00m
Waning Gibbous, 75% of the Moon is Illuminated
Jan 2
Waning Gibbous
Jan 4
Last Quarter
Jan 11
New
Jan 18
First Quarter
Jan 26
Full

Hourly Weather History & Observations

Time (EST) Temp. Dew Point Humidity Pressure Visibility Wind Dir Wind Speed Gust Speed Precip Events Conditions
12:15 AM 60.8 °F 57.2 °F 88% 29.94 in 5.0 mi Calm Calm - N/A   Overcast
12:35 AM 59.0 °F 57.2 °F 94% 29.93 in 10.0 mi Calm Calm - N/A   Overcast
12:55 AM 59.0 °F 57.2 °F 94% 29.93 in 8.0 mi Calm Calm - N/A   Overcast
1:15 AM 60.8 °F 57.2 °F 88% 29.93 in 10.0 mi Calm Calm - N/A   Overcast
1:35 AM 60.8 °F 57.2 °F 88% 29.92 in 10.0 mi Calm Calm - N/A   Overcast
1:55 AM 60.8 °F 57.2 °F 88% 29.92 in 10.0 mi Calm Calm - N/A   Overcast
2:15 AM 60.8 °F 57.2 °F 88% 29.92 in 10.0 mi Calm Calm - N/A   Overcast
2:35 AM 62.6 °F 57.2 °F 82% 29.92 in 8.0 mi SSW 6.9 mph - N/A   Mostly Cloudy
2:55 AM 62.6 °F 59.0 °F 88% 29.91 in 10.0 mi SSW 6.9 mph - N/A   Overcast
3:15 AM 64.4 °F 57.2 °F 77% 29.91 in 10.0 mi SSW 4.6 mph - N/A   Overcast
3:35 AM 64.4 °F 57.2 °F 77% 29.92 in 10.0 mi SW 5.8 mph - N/A   Overcast
4:15 AM 64.4 °F 59.0 °F 83% 29.92 in 10.0 mi SW 5.8 mph - N/A   Overcast
4:35 AM 62.6 °F 59.0 °F 88% 29.90 in 10.0 mi Calm Calm - N/A   Overcast
4:55 AM 62.6 °F 59.0 °F 88% 29.89 in 10.0 mi Calm Calm - N/A   Overcast
5:15 AM 62.6 °F 57.2 °F 82% 29.90 in 10.0 mi Calm Calm - N/A   Overcast
5:35 AM 62.6 °F 59.0 °F 88% 29.90 in 10.0 mi Calm Calm - N/A   Overcast
5:55 AM 62.6 °F 59.0 °F 88% 29.91 in 8.0 mi Calm Calm - N/A   Overcast
6:15 AM 59.0 °F 57.2 °F 94% 29.94 in 2.5 mi NW 11.5 mph 16.1 mph N/A Rain Rain
6:35 AM 57.2 °F 55.4 °F 94% 29.95 in 2.5 mi NW 4.6 mph - 0.01 in   Light Drizzle
6:55 AM 57.2 °F 55.4 °F 94% 29.95 in 4.0 mi NW 4.6 mph - 0.01 in   Overcast
7:15 AM 55.4 °F 55.4 °F 100% 29.97 in 8.0 mi NNW 5.8 mph - N/A   Light Drizzle
7:35 AM 55.4 °F 53.6 °F 94% 29.97 in 3.0 mi NNW 9.2 mph - N/A   Overcast
7:55 AM 55.4 °F 53.6 °F 94% 29.99 in 10.0 mi NNW 4.6 mph - N/A   Overcast
8:15 AM 53.6 °F 53.6 °F 100% 30.00 in 10.0 mi NNW 4.6 mph - N/A   Overcast
8:35 AM 53.6 °F 53.6 °F 100% 30.01 in 10.0 mi NNW 4.6 mph - N/A   Overcast
8:55 AM 53.6 °F 53.6 °F 100% 30.01 in 9.0 mi North 8.1 mph - N/A   Overcast
9:35 AM 55.4 °F 53.6 °F 94% 30.03 in 10.0 mi NNW 4.6 mph - N/A   Overcast
9:55 AM 55.4 °F 53.6 °F 94% 30.05 in 10.0 mi NNW 5.8 mph - N/A   Overcast
10:15 AM 55.4 °F 53.6 °F 94% 30.05 in 10.0 mi NNW 5.8 mph - N/A   Overcast
10:35 AM 55.4 °F 53.6 °F 94% 30.06 in 10.0 mi North 8.1 mph - N/A   Overcast
11:15 AM 55.4 °F 53.6 °F 94% 30.06 in 10.0 mi Calm Calm - N/A   Overcast
11:35 AM 55.4 °F 53.6 °F 94% 30.06 in 10.0 mi North 5.8 mph - N/A   Overcast
11:55 AM 55.4 °F 53.6 °F 94% 30.05 in 10.0 mi NNE 4.6 mph - N/A   Overcast
12:15 PM 57.2 °F 53.6 °F 88% 30.05 in 10.0 mi NNE 5.8 mph - N/A   Overcast
12:35 PM 57.2 °F 53.6 °F 88% 30.03 in 10.0 mi North 5.8 mph - N/A   Overcast
1:15 PM 57.2 °F 51.8 °F 82% 30.03 in 10.0 mi ENE 4.6 mph - N/A   Overcast
1:35 PM 57.2 °F 51.8 °F 82% 30.03 in 10.0 mi NNE 4.6 mph - N/A   Overcast
1:55 PM 57.2 °F 51.8 °F 82% 30.02 in 10.0 mi North 6.9 mph - N/A   Overcast
2:15 PM 57.2 °F 51.8 °F 82% 30.02 in 10.0 mi NNE 6.9 mph - N/A   Overcast
2:35 PM 57.2 °F 51.8 °F 82% 30.02 in 10.0 mi NNE 4.6 mph - N/A   Overcast
2:55 PM 57.2 °F 51.8 °F 82% 30.02 in 10.0 mi NNE 4.6 mph - N/A   Overcast
3:15 PM 57.2 °F 51.8 °F 82% 30.03 in 10.0 mi NNE 5.8 mph - N/A   Overcast
3:35 PM 59.0 °F 51.8 °F 77% 30.03 in 10.0 mi Calm Calm - N/A   Overcast
3:55 PM 59.0 °F 51.8 °F 77% 30.04 in 10.0 mi Calm Calm - N/A   Mostly Cloudy
4:15 PM 59.0 °F 51.8 °F 77% 30.03 in 10.0 mi Calm Calm - N/A   Mostly Cloudy
4:35 PM 59.0 °F 51.8 °F 77% 30.04 in 10.0 mi Calm Calm - N/A   Partly Cloudy
5:35 PM 57.2 °F 51.8 °F 82% 30.06 in 10.0 mi Calm Calm - N/A   Clear
5:55 PM 55.4 °F 51.8 °F 88% 30.06 in 10.0 mi Calm Calm - N/A   Clear
6:15 PM 53.6 °F 50.0 °F 88% 30.07 in 10.0 mi Calm Calm - N/A   Clear
6:35 PM 53.6 °F 51.8 °F 94% 30.08 in 10.0 mi Calm Calm - N/A   Clear
6:55 PM 51.8 °F 50.0 °F 94% 30.08 in 10.0 mi Calm Calm - N/A   Clear
7:15 PM 51.8 °F 50.0 °F 94% 30.08 in 10.0 mi Calm Calm - N/A   Clear
7:35 PM 53.6 °F 51.8 °F 94% 30.08 in 10.0 mi Calm Calm - N/A   Clear
7:55 PM 51.8 °F 50.0 °F 94% 30.08 in 10.0 mi Calm Calm - N/A   Clear
8:15 PM 51.8 °F 50.0 °F 94% 30.10 in 10.0 mi Calm Calm - N/A   Clear
8:35 PM 51.8 °F 51.8 °F 100% 30.10 in 10.0 mi Calm Calm - N/A   Clear
8:55 PM 51.8 °F 50.0 °F 94% 30.11 in 10.0 mi Calm Calm - N/A   Partly Cloudy
9:15 PM 51.8 °F 51.8 °F 100% 30.11 in 10.0 mi Calm Calm - N/A   Mostly Cloudy
9:35 PM 51.8 °F 51.8 °F 100% 30.13 in 10.0 mi Calm Calm - N/A   Overcast
9:55 PM 51.8 °F 51.8 °F 100% 30.14 in 10.0 mi Calm Calm - N/A   Mostly Cloudy
10:15 PM 51.8 °F 51.8 °F 100% 30.14 in 10.0 mi Calm Calm - N/A   Partly Cloudy
10:35 PM 51.8 °F 51.8 °F 100% 30.15 in 10.0 mi Calm Calm - N/A   Scattered Clouds
10:55 PM 51.8 °F 50.0 °F 94% 30.14 in 10.0 mi Calm Calm - N/A   Scattered Clouds
11:15 PM 51.8 °F 50.0 °F 94% 30.13 in 10.0 mi Calm Calm - N/A   Scattered Clouds
11:35 PM 51.8 °F 48.2 °F 88% 30.13 in 10.0 mi Calm Calm - N/A   Mostly Cloudy
11:55 PM 51.8 °F 48.2 °F 88% 30.14 in 10.0 mi Calm Calm - N/A   Overcast